Weather reports worldwide

Advertisment
Lille, France (7015): temperature & dewpoint: 16.08.2019 20:00:00 - 22.08.2019 20:00:00 (CEST)Lille, France (7015): temperature 5cm: 16.08.2019 20:00:00 - 22.08.2019 20:00:00 (CEST)Lille, France (7015): temperature -20cm & temperature -100cm: 16.08.2019 20:00:00 - 22.08.2019 20:00:00 (CEST)Lille, France (7015): wind speed & gusts: 16.08.2019 20:00:00 - 22.08.2019 20:00:00 (CEST)Lille, France (7015): wind direction: 16.08.2019 20:00:00 - 22.08.2019 20:00:00 (CEST)Lille, France (7015): reduced air pressure: 16.08.2019 20:00:00 - 22.08.2019 20:00:00 (CEST)Lille, France (7015): visibility: 16.08.2019 20:00:00 - 22.08.2019 20:00:00 (CEST)Lille, France (7015): precipitation: 16.08.2019 20:00:00 - 22.08.2019 20:00:00 (CEST)
Date & Time tt [°C] td [°C] tt 5cm [°C] tt -20cm [°C] tt -100cm [°C] ff [km/h] ff [kn] fx [km/h] fx [kn] dd ppp [hPa] vv [km] rr [mm]
22.08.2019 20:00:00 22,2 9,0 23,9 21,9 18,0 18 10 27 15 W 1025,4 36 0,0
22.08.2019 19:00:00 23,8 9,8 26,7 21,9 17,9 16 9 29 16 W 1025,0 25 0,0
22.08.2019 18:00:00 24,3 9,5 28,2 21,7 17,9 16 8 29 16 W 1025,0 25 0,0
22.08.2019 17:00:00 24,7 9,0 29,3 21,2 17,9 15 8 30 16 W 1025,0 26 0,0
22.08.2019 16:00:00 24,9 8,0 29,7 20,5 17,9 14 8 32 17 W 1025,2 25 0,0
22.08.2019 15:00:00 24,7 7,8 29,3 19,7 17,9 14 8 27 15 WSW 1025,4 26 0,0
22.08.2019 14:00:00 24,0 10,3 28,2 18,8 17,9 11 6 28 15 W 1025,7 29 0,0
22.08.2019 13:00:00 22,3 10,1 27,1 17,9 17,9 12 7 29 16 SW 1026,1 24 0,0
22.08.2019 12:00:00 20,9 10,1 25,7 17,1 17,9 8 4 16 9 WNW 1026,6 22 0,0
22.08.2019 11:00:00 19,2 11,0 22,7 16,5 17,9 10 5 19 10 W 1026,5 15 0,0
22.08.2019 10:00:00 16,8 11,9 18,5 16,2 17,9 13 7 19 10 WNW 1026,3 15 0,0
22.08.2019 09:00:00 13,8 11,8 13,5 16,1 18,0 5 3 8 4 W 1026,1 12 0,0
22.08.2019 08:00:00 11,2 9,9 8,6 16,2 17,9 3 1 6 3 S 1026,0 8 0,0
22.08.2019 07:00:00 10,3 9,2 7,7 16,5 17,9 5 3 9 5 SW 1025,7 7 0,2
22.08.2019 06:00:00 10,2 9,1 7,5 16,8 18,0 7 4 9 5 WSW 1025,4 6 0,0
22.08.2019 05:00:00 10,1 8,9 6,8 17,1 18,0 0 0 3 1 N 1025,3 10 0,0
22.08.2019 04:00:00 10,2 8,5 7,5 17,5 18,0 0 0 5 3 N 1025,5 13 0,0
22.08.2019 03:00:00 11,4 9,5 7,7 17,9 18,0 2 1 6 3 SE 1025,7 15 0,0
22.08.2019 02:00:00 12,2 9,2 8,2 18,4 18,0 5 3 9 5 SW 1025,8 15 0,0
22.08.2019 01:00:00 13,6 8,8 9,5 18,8 18,0 9 5 12 6 WSW 1026,2 22 0,0
22.08.2019 00:00:00 14,3 8,0 10,4 19,3 18,0 6 4 12 6 NW 1026,4 56 0,0
21.08.2019 23:00:00 15,6 7,6 11,0 19,9 18,0 0 0 3 2 N 1026,3 60 0,0
21.08.2019 22:00:00 17,2 7,8 13,1 20,5 18,0 0 0 6 3 N 1026,1 50 0,0
21.08.2019 21:00:00 19,5 6,9 17,0 21,0 18,0 3 2 11 6 SSE 1026,1 19 0,0
21.08.2019 20:00:00 21,5 7,7 23,6 21,3 18,0 8 5 12 7 SE 1025,7 43 0,0
21.08.2019 19:00:00 22,6 8,3 26,0 21,3 18,0 8 5 16 9 SE 1025,8 47 0,0
21.08.2019 18:00:00 23,2 8,1 28,2 21,0 18,0 8 5 18 10 E 1026,0 45 0,0
21.08.2019 17:00:00 22,9 7,8 28,0 20,6 18,0 8 4 19 10 E 1026,4 29 0,0
21.08.2019 16:00:00 23,3 8,2 28,6 19,9 18,0 5 3 24 13 ENE 1026,7 42 0,0
21.08.2019 15:00:00 22,5 9,3 28,3 19,0 18,0 6 3 19 10 WNW 1027,3 30 0,0
21.08.2019 14:00:00 21,6 8,5 23,5 18,1 18,0 6 3 19 11 S 1027,7 47 0,0
21.08.2019 13:00:00 21,7 9,2 26,1 17,3 18,0 4 2 18 10 W 1028,1 46 0,0
21.08.2019 12:00:00 19,3 11,3 22,7 16,5 18,0 8 4 15 8 ESE 1028,7 26 0,0
21.08.2019 11:00:00 18,2 12,2 22,5 15,8 18,0 5 3 13 7 SE 1028,8 24 0,0
21.08.2019 10:00:00 16,1 12,8 18,7 15,4 18,0 6 4 10 6 S 1029,0 20 0,0
21.08.2019 09:00:00 12,8 10,9 13,6 15,3 18,0 3 2 9 5 SE 1029,0 20 0,0
21.08.2019 08:00:00 10,3 8,9 8,7 15,5 18,1 3 1 8 4 ESE 1028,6 13 0,0
21.08.2019 07:00:00 9,2 8,4 8,0 15,7 18,1 3 2 5 3 ESE 1028,3 10 0,0
21.08.2019 06:00:00 9,1 8,0 8,0 15,9 18,1 3 2 6 3 SE 1027,9 16 0,0
21.08.2019 05:00:00 9,2 8,0 8,2 16,2 18,1 3 2 6 3 SSE 1027,8 27 0,0
21.08.2019 04:00:00 9,7 8,1 8,6 16,5 18,1 2 1 5 3 SSE 1027,9 37 0,0
21.08.2019 03:00:00 10,4 8,7 9,1 16,9 18,1 5 3 6 4 S 1027,8 40 0,0
21.08.2019 02:00:00 10,8 8,2 9,6 17,2 18,1 2 1 4 2 SE 1027,9 49 0,0
21.08.2019 01:00:00 11,4 8,1 8,2 17,6 18,1 4 2 6 3 SSE 1027,8 58 0,0
21.08.2019 00:00:00 12,9 8,2 9,6 18,0 18,1 5 3 12 6 S 1027,6 39 0,0
20.08.2019 23:00:00 13,4 7,8 10,0 18,5 18,1 9 5 16 8 W 1027,3 60 0,0
20.08.2019 22:00:00 15,0 7,3 13,4 19,0 18,1 11 6 18 10 W 1026,8 60 0,0
20.08.2019 21:00:00 17,1 7,2 16,3 19,5 18,1 11 6 27 14 W 1026,2 60 0,0
20.08.2019 20:00:00 19,4 7,5 20,5 19,7 18,1 22 12 32 18 W 1025,6 31 0,0
20.08.2019 19:00:00 20,5 8,5 22,1 19,8 18,1 24 13 36 19 W 1024,9 18 0,0
20.08.2019 18:00:00 21,6 8,5 22,1 19,6 18,1 21 11 37 20 W 1024,5 19 0,0
20.08.2019 17:00:00 21,8 9,3 25,5 19,2 18,2 24 13 44 24 W 1024,2 19 0,0
20.08.2019 16:00:00 21,8 9,7 22,5 18,8 18,1 29 15 43 23 W 1023,8 20 0,0
20.08.2019 15:00:00 21,8 8,7 22,7 18,2 18,1 22 12 36 20 W 1023,4 26 0,0
20.08.2019 14:00:00 20,9 9,8 21,4 17,5 18,1 22 12 36 19 W 1023,3 32 0,0
20.08.2019 13:00:00 20,1 9,9 20,1 17,0 18,1 15 8 35 19 W 1023,4 21 0,0
20.08.2019 12:00:00 19,5 10,8 19,1 16,4 18,2 19 11 31 17 W 1023,2 24 0,0
20.08.2019 11:00:00 18,3 12,5 19,4 15,9 18,2 15 8 32 17 SW 1023,1 25 0,0
20.08.2019 10:00:00 16,7 12,2 18,9 15,5 18,2 18 10 27 15 SW 1022,9 28 0,0
20.08.2019 09:00:00 14,2 12,1 14,7 15,4 18,2 10 5 15 8 S 1022,7 31 0,0
20.08.2019 08:00:00 11,8 10,9 9,9 15,5 18,2 5 3 12 7 S 1022,3 20 0,0
20.08.2019 07:00:00 10,9 10,0 8,0 15,7 18,2 6 3 8 4 SSE 1021,7 11 0,0
20.08.2019 06:00:00 11,8 10,5 10,8 15,9 18,2 2 1 11 6 SE 1020,9 19 0,2
20.08.2019 05:00:00 12,0 10,4 11,3 16,1 18,2 4 2 9 5 SSW 1021,0 16 0,0
20.08.2019 04:00:00 12,4 10,6 10,8 16,3 18,2 2 1 12 7 SSW 1021,0 20 0,0
20.08.2019 03:00:00 11,8 10,0 10,5 16,5 18,2 4 2 13 7 SW 1021,0 27 0,0
20.08.2019 02:00:00 12,5 10,6 9,1 16,9 18,2 10 5 13 7 S 1020,8 20 0,0
20.08.2019 01:00:00 13,4 10,7 11,0 17,1 18,2 8 4 15 8 S 1020,9 30 0,0
20.08.2019 00:00:00 14,1 10,9 13,1 17,4 18,2 8 5 16 9 SW 1020,5 32 0,0
19.08.2019 23:00:00 15,2 11,0 14,0 17,8 18,2 14 7 18 10 WSW 1020,0 38 0,0
19.08.2019 22:00:00 16,1 10,2 15,2 18,1 18,2 12 7 26 14 SW 1019,9 46 0,0
19.08.2019 21:00:00 17,1 9,3 16,4 18,4 18,2 16 9 39 21 WSW 1019,3 56 0,0
19.08.2019 20:00:00 19,0 9,2 19,5 18,7 18,2 23 12 48 26 WSW 1018,9 24 0,0
19.08.2019 19:00:00 20,1 8,4 20,7 18,7 18,2 28 15 48 26 WSW 1018,3 21 0,0
19.08.2019 18:00:00 20,6 9,8 21,6 18,6 18,2 32 17 51 28 WSW 1018,1 22 0,0
19.08.2019 17:00:00 21,4 9,6 21,9 18,3 18,2 31 17 48 26 W 1017,8 24 0,0
19.08.2019 16:00:00 19,5 10,8 19,6 18,2 18,3 24 13 48 26 SW 1017,7 41 0,0
19.08.2019 15:00:00 20,3 10,1 18,4 17,9 18,2 27 14 56 30 WSW 1017,7 27 0,0
19.08.2019 14:00:00 19,0 10,3 19,3 17,6 18,3 35 19 55 30 WSW 1017,3 12 0,0
19.08.2019 13:00:00 19,5 12,0 18,7 17,1 18,3 24 13 39 21 SW 1016,7 12 0,0
19.08.2019 12:00:00 18,4 11,9 15,3 16,7 18,3 24 13 43 23 WSW 1016,5 6 0,6
19.08.2019 11:00:00 18,2 11,7 19,2 16,3 18,2 26 14 39 21 SW 1016,1 20 0,0
19.08.2019 10:00:00 17,0 12,1 16,5 16,1 18,3 20 11 33 18 SW 1015,6 26 0,0
19.08.2019 09:00:00 14,7 12,0 13,7 15,9 18,2 16 8 29 15 SSW 1015,3 31 0,0
19.08.2019 08:00:00 13,6 11,5 12,3 16,0 18,3 18 10 26 14 SSW 1015,1 33 0,0
19.08.2019 07:00:00 12,4 10,6 11,5 16,2 18,3 13 7 22 12 SSW 1014,6 33 0,0
19.08.2019 06:00:00 12,1 10,2 11,5 16,3 18,3 14 8 22 12 SSW 1014,3 37 0,0
19.08.2019 05:00:00 12,5 10,4 11,6 16,6 18,3 12 6 25 14 S 1013,7 36 0,0
19.08.2019 04:00:00 12,9 10,6 12,4 16,8 18,3 13 7 22 12 SSW 1013,5 43 0,0
19.08.2019 03:00:00 13,1 11,0 12,3 17,0 18,3 10 6 19 10 S 1013,3 36 0,0
19.08.2019 02:00:00 13,1 11,0 12,3 17,3 18,3 9 5 17 9 SSW 1013,3 36 0,0
19.08.2019 01:00:00 13,4 10,9 12,5 17,6 18,3 11 6 22 12 S 1012,6 38 0,0
19.08.2019 00:00:00 13,9 10,9 13,0 17,9 18,3 13 7 22 12 SSW 1012,2 44 0,0
18.08.2019 23:00:00 15,0 10,8 14,1 18,3 18,3 14 8 27 14 SW 1011,6 58 0,0
18.08.2019 22:00:00 15,8 10,3 15,0 18,7 18,3 15 8 31 17 SW 1011,4 60 0,0
18.08.2019 21:00:00 17,3 9,2 16,6 19,2 18,3 17 9 50 27 WSW 1010,6 60 0,0
18.08.2019 20:00:00 18,9 10,7 19,2 19,5 18,3 26 14 48 26 WSW 1010,2 24 0,0
18.08.2019 19:00:00 20,2 10,3 19,9 19,6 18,3 30 16 51 28 WSW 1009,9 15 0,0
18.08.2019 18:00:00 20,4 10,2 21,5 19,5 18,3 33 18 53 28 W 1009,3 17 0,0
18.08.2019 17:00:00 21,2 11,5 21,5 19,3 18,3 33 18 47 26 WSW 1008,7 23 0,0
18.08.2019 16:00:00 21,2 12,9 21,8 18,9 18,3 27 14 46 25 WSW 1007,9 27 0,0
18.08.2019 15:00:00 20,7 13,9 18,8 18,6 18,3 24 13 39 21 W 1007,5 35 0,0
18.08.2019 14:00:00 19,1 14,4 18,4 18,3 18,3 24 13 36 19 WSW 1006,9 36 0,0
18.08.2019 13:00:00 18,0 14,5 18,0 18,0 18,3 18 10 26 14 WSW 1006,2 55 0,0
18.08.2019 12:00:00 17,5 14,9 16,3 17,8 18,3 16 9 25 13 WSW 1005,3 59 0,0
18.08.2019 11:00:00 16,4 14,6 16,2 17,6 18,3 11 6 19 10 WSW 1004,6 35 0,0
18.08.2019 10:00:00 15,5 14,9 15,2 17,5 18,3 5 3 13 7 S 1004,1 25 0,6
18.08.2019 09:00:00 15,1 14,8 14,7 17,6 18,3 8 4 16 9 ESE 1003,4 7 1,8
18.08.2019 08:00:00 14,8 14,3 14,4 17,7 18,3 9 5 13 7 ESE 1003,9 2,9 3,1
18.08.2019 07:00:00 14,6 14,0 14,3 17,8 18,3 6 3 18 10 SE 1004,9 4,2 3,0
18.08.2019 06:00:00 15,2 14,2 14,7 17,9 18,3 11 6 23 13 S 1005,9 4,9 2,8
18.08.2019 05:00:00 15,8 14,7 15,0 17,9 18,3 8 4 19 10 S 1006,1 11 0,0
18.08.2019 04:00:00 15,5 14,2 14,9 18,0 18,3 9 5 16 8 S 1006,9 20 0,2
18.08.2019 03:00:00 15,7 14,4 14,9 18,1 18,3 11 6 16 8 S 1007,5 14 0,4
18.08.2019 02:00:00 16,1 13,9 15,3 18,2 18,4 10 5 13 7 S 1007,5 19 0,0
18.08.2019 01:00:00 16,1 13,6 15,7 18,3 18,4 9 5 14 7 SSW 1007,9 28 0,0
18.08.2019 00:00:00 16,3 13,6 15,9 18,5 18,3 9 5 16 9 SSW 1008,2 29 0,0
17.08.2019 23:00:00 16,3 13,6 16,0 18,7 18,4 9 5 14 7 SW 1008,1 29 0,0
17.08.2019 22:00:00 16,9 13,4 16,3 18,8 18,4 9 5 18 10 SSW 1008,3 37 0,0
17.08.2019 21:00:00 17,6 13,1 17,3 19,0 18,3 9 5 20 11 SSW 1008,0 38 0,0
17.08.2019 20:00:00 18,4 13,5 18,3 19,1 18,4 9 5 16 8 SW 1007,8 45 0,0
17.08.2019 19:00:00 18,3 15,7 18,6 19,1 18,4 11 6 18 10 SSW 1008,4 30 0,0
17.08.2019 18:00:00 18,7 15,4 18,7 19,1 18,4 12 7 30 16 SSW 1008,0 32 0,0
17.08.2019 17:00:00 18,4 15,8 17,7 19,1 18,4 13 7 36 20 WSW 1008,0 24 0,0
17.08.2019 16:00:00 18,7 15,9 18,3 19,0 18,4 17 9 42 23 W 1007,9 50 0,6
17.08.2019 15:00:00 21,2 17,0 21,8 18,9 18,4 27 15 44 24 S 1007,0 48 0,0
17.08.2019 14:00:00 20,9 16,9 21,3 18,7 18,4 24 13 41 22 SSW 1007,1 32 0,0
17.08.2019 13:00:00 20,5 16,7 20,7 18,6 18,4 26 14 46 25 SSW 1007,6 57 0,0
17.08.2019 12:00:00 20,2 16,4 20,7 18,4 18,4 26 14 42 23 SSW 1007,6 31 0,0
17.08.2019 11:00:00 19,9 16,1 18,0 18,2 18,4 26 14 40 21 SSW 1007,6 43 0,0
17.08.2019 10:00:00 18,1 16,3 17,5 18,1 18,4 22 12 37 20 SSW 1007,9 37 0,2
17.08.2019 09:00:00 18,0 15,3 17,6 18,1 18,4 22 12 37 20 SSW 1007,8 45 0,0
17.08.2019 08:00:00 17,3 14,9 17,0 18,1 18,4 18 10 36 20 SSW 1007,5 44 0,0
17.08.2019 07:00:00 17,1 14,9 16,9 18,1 18,4 23 12 39 21 S 1007,5 58 0,0
17.08.2019 06:00:00 17,2 14,3 17,0 18,2 18,4 23 13 43 23 SSW 1007,6 60 0,0
17.08.2019 05:00:00 17,3 14,2 17,1 18,3 18,4 26 14 47 25 SSW 1007,8 60 0,0
17.08.2019 04:00:00 18,1 13,6 16,1 18,4 18,4 27 15 46 25 SSW 1007,9 56 0,0
17.08.2019 03:00:00 18,5 13,4 17,5 18,5 18,4 24 13 42 23 SSW 1008,0 60 0,0
17.08.2019 02:00:00 18,0 13,3 17,4 18,7 18,4 16 9 31 17 S 1008,6 60 0,0
17.08.2019 01:00:00 17,9 13,6 15,9 18,9 18,5 16 9 24 13 S 1009,1 60 0,0
17.08.2019 00:00:00 17,9 13,8 15,8 19,0 18,4 11 6 19 10 S 1010,1 17 0,6
16.08.2019 23:00:00 18,4 14,5 17,5 19,1 18,4 5 3 9 5 S 1010,7 31 0,0
16.08.2019 22:00:00 18,6 14,9 17,4 19,3 18,4 3 2 12 6 WSW 1011,0 40 0,0
16.08.2019 21:00:00 19,9 14,5 18,8 19,4 18,4 13 7 23 12 W 1011,2 52 0,0
16.08.2019 20:00:00 22,1 12,4 20,6 19,6 18,5 9 5 28 15 S 1011,0 58 0,0

tt = temperature
td = dewpoint
tt 5cm = temperature 5cm
tt -20cm = temperature -20cm
tt -100cm = temperature -100cm
ff = wind speed
fx = gusts
dd = wind direction
ppp = reduced air pressure
vv = visibility
rr = precipitation

Next stations